Temp
-9 -9 -9 -9 -9 -9 -9 -9 -9 -9 -9 -9 -9 -9 -9 -9 -9 -9 -9 -9 -9 -9 -9 -9 -9 -9 -9 -9 -9 -9 -10 -10 -10 -10 -10 -10 -10 -10 -11 -11 -11 -10 -11 -10 -10
-10 -10 -10 -10 -10 -9 -9 -9 -9 -9 -9 -9 -10 -10 -9 -9 -9 -9 -9 -9 -9 -9 -9 -9 -9 -9 -9 -9 -10 -9 -10 -10 -10 -10 -10 -10 -10 -10 -10 -10 -11 -11 -11 -11 -11
-10 -10 -10 -10 -10 -10 -10 -10 -9 -9 -9 -10 -10 -10 -10 -10 -10 -10 -9 -9 -9 -9 -9 -9 -9 -9 -9 -9 -10 -10 -10 -10 -10 -10 -10 -11 -11 -11 -10 -11 -11 -11 -11 -11 -11
-10 -10 -10 -10 -10 -10 -10 -10 -10 -10 -10 -10 -10 -10 -10 -10 -10 -9 -9 -9 -9 -9 -9 -9 -9 -9 -10 -10 -10 -10 -10 -10 -10 -11 -11 -11 -11 -11 -11 -10 -11 -11 -11 -11 -11
-10 -10 -10 -10 -10 -10 -10 -10 -10 -10 -10 -10 -10 -10 -10 -10 -10 -9 -9 -9 -9 -9 -9 -10 -10 -10 -10 -10 -10 -10 -10 -10 -10 -11 -11 -11 -11 -10 -11 -10 -10 -11 -11 -11 -11
-10 -10 -10 -10 -10 -10 -10 -10 -10 -10 -10 -10 -10 -10 -10 -10 -10 -10 -10 -10 -10 -10 -10 -10 -10 -10 -10 -10 -10 -10 -10 -10 -11 -11 -11 -11 -11 -11 -10 -10 -10 -11 -11 -11 -11
-11 -11 -10 -10 -10 -10 -10 -10 -10 -10 -10 -10 -10 -10 -10 -10 -10 -10 -10 -10 -10 -10 -10 -10 -10 -10 -10 -10 -10 -10 -10 -11 -11 -10 -10 -10 -11 -11 -11 -10 -11 -11 -10 -10 -10
-11 -11 -11 -11 -11 -11 -11 -10 -10 -10 -10 -10 -10 -10 -10 -10 -10 -10 -10 -10 -10 -10 -10 -10 -10 -10 -10 -10 -10 -10 -10 -11 -11 -10 -10 -10 -10 -11 -11 -11 -11 -11 -11 -10 -10
-11 -12 -11 -11 -11 -11 -11 -11 -11 -11 -11 -11 -11 -11 -11 -11 -11 -11 -11 -11 -11 -11 -11 -11 -11 -11 -11 -11 -11 -11 -10 -10 -11 -11 -10 -10 -9 -10 -10 -11 -11 -11 -11 -10 -10
-12 -12 -12 -11 -11 -11 -11 -11 -11 -11 -11 -11 -11 -11 -11 -11 -11 -11 -11 -11 -11 -11 -11 -11 -11 -11 -11 -11 -10 -10 -11 -11 -11 -11 -11 -10 -10 -10 -10 -11 -11 -10 -10 -10 -11
-12 -12 -12 -12 -12 -12 -12 -11 -11 -11 -12 -11 -11 -11 -11 -11 -11 -11 -11 -11 -11 -11 -11 -11 -11 -11 -11 -11 -11 -11 -10 -10 -11 -11 -10 -11 -10 -11 -11 -12 -11 -11 -11 -11 -11
-12 -12 -12 -12 -12 -12 -12 -12 -12 -11 -11 -12 -12 -11 -11 -11 -11 -11 -11 -11 -11 -11 -11 -11 -11 -11 -11 -11 -11 -11 -11 -11 -11 -11 -11 -11 -11 -11 -12 -11 -11 -12 -12 -12 -11
-13 -13 -12 -13 -12 -12 -12 -12 -12 -12 -12 -12 -12 -11 -11 -11 -11 -11 -11 -11 -11 -11 -11 -11 -11 -12 -11 -11 -12 -12 -12 -12 -11 -12 -12 -11 -11 -12 -13 -12 -13 -12 -12 -12 -12
-13 -13 -13 -12 -12 -12 -12 -12 -12 -12 -12 -11 -11 -11 -11 -11 -12 -11 -12 -12 -11 -12 -12 -11 -12 -12 -12 -12 -12 -12 -12 -12 -12 -12 -12 -12 -11 -11 -12 -12 -13 -13 -12 -13 -13
-13 -13 -13 -13 -13 -13 -13 -12 -12 -12 -12 -11 -11 -11 -12 -12 -12 -12 -12 -12 -12 -13 -13 -12 -12 -13 -13 -13 -13 -13 -13 -13 -13 -13 -12 -13 -12 -12 -12 -13 -13 -13 -14 -14 -14
-13 -13 -13 -13 -13 -13 -13 -12 -12 -13 -11 -12 -12 -12 -12 -13 -13 -12 -13 -13 -13 -13 -13 -13 -12 -13 -13 -14 -14 -13 -14 -14 -14 -14 -13 -13 -13 -12 -13 -13 -14 -14 -14 -15 -15
-13 -13 -13 -13 -13 -13 -13 -13 -13 -12 -12 -12 -13 -13 -13 -13 -13 -13 -13 -13 -14 -13 -13 -13 -14 -14 -14 -14 -14 -15 -15 -15 -14 -14 -14 -14 -14 -13 -14 -14 -14 -14 -14 -15 -16
-13 -13 -14 -14 -14 -13 -13 -14 -13 -12 -13 -13 -14 -14 -14 -14 -14 -14 -14 -14 -14 -14 -14 -14 -15 -15 -15 -15 -15 -16 -16 -16 -16 -15 -15 -15 -14 -15 -15 -15 -15 -15 -16 -16 -17
-14 -14 -14 -14 -14 -14 -14 -14 -12 -14 -15 -14 -14 -14 -14 -15 -15 -15 -15 -15 -15 -16 -16 -16 -15 -15 -15 -15 -16 -15 -16 -16 -16 -16 -16 -15 -15 -15 -16 -16 -16 -17 -16 -16 -17
-14 -14 -14 -14 -14 -14 -14 -14 -14 -14 -15 -15 -15 -15 -15 -16 -16 -16 -16 -15 -16 -16 -16 -16 -16 -16 -16 -16 -16 -16 -16 -17 -17 -18 -17 -17 -17 -17 -17 -18 -18 -18 -18 -18 -18
-14 -14 -14 -14 -15 -14 -14 -14 -15 -15 -15 -15 -15 -15 -16 -17 -17 -16 -16 -15 -15 -16 -16 -16 -16 -16 -16 -17 -18 -18 -18 -18 -19 -19 -19 -19 -18 -18 -19 -19 -19 -19 -19 -19 -19
-14 -14 -14 -14 -15 -15 -15 -15 -16 -16 -16 -16 -16 -16 -17 -17 -16 -17 -17 -16 -16 -16 -17 -17 -17 -17 -17 -18 -18 -18 -19 -19 -19 -19 -20 -20 -20 -19 -20 -20 -20 -21 -21 -21 -21
-15 -15 -15 -15 -15 -16 -15 -16 -16 -16 -16 -16 -16 -16 -17 -18 -18 -18 -18 -18 -17 -17 -17 -18 -18 -17 -17 -19 -19 -20 -20 -20 -20 -20 -20 -21 -20 -21 -21 -22 -22 -22 -22 -22 -22
-15 -15 -15 -15 -16 -16 -16 -17 -17 -17 -17 -17 -17 -18 -18 -19 -19 -19 -18 -18 -18 -18 -18 -18 -18 -18 -18 -20 -20 -20 -20 -20 -21 -21 -22 -21 -22 -22 -23 -23 -23 -23 -23 -23 -23
-16 -16 -16 -16 -16 -17 -18 -19 -18 -17 -18 -18 -18 -19 -19 -19 -19 -19 -19 -19 -18 -19 -19 -19 -19 -19 -19 -20 -20 -20 -20 -20 -22 -23 -24 -22 -23 -22 -23 -23 -23 -23 -24 -24 -24
-18 -18 -18 -18 -18 -20 -20 -19 -18 -18 -19 -19 -19 -19 -19 -19 -19 -20 -19 -19 -20 -20 -20 -20 -20 -21 -20 -21 -21 -21 -20 -21 -22 -22 -23 -23 -23 -24 -23 -24 -24 -24 -24 -24 -24
-18 -20 -19 -19 -20 -19 -19 -19 -19 -19 -19 -19 -19 -20 -20 -20 -20 -20 -20 -21 -21 -21 -21 -21 -21 -22 -21 -22 -22 -22 -21 -23 -23 -23 -23 -23 -24 -24 -24 -24 -24 -25 -25 -25 -25
Height
5863 5864 5865 5866 5867 5868 5869 5869 5870 5871 5871 5872 5872 5873 5873 5874 5874 5875 5875 5876 5876 5875 5876 5875 5875 5875 5874 5873 5872 5871 5872 5869 5868 5867 5866 5866 5866 5865 5865 5864 5863 5863 5861 5860 5859
5858 5860 5861 5862 5864 5864 5865 5865 5866 5867 5868 5868 5869 5870 5870 5871 5872 5872 5872 5872 5871 5871 5871 5871 5871 5870 5870 5870 5868 5868 5867 5865 5864 5864 5863 5861 5860 5860 5862 5862 5857 5857 5855 5855 5856
5853 5855 5856 5858 5859 5860 5861 5861 5862 5863 5863 5864 5865 5865 5866 5867 5868 5867 5868 5867 5867 5867 5867 5866 5866 5865 5865 5865 5864 5864 5863 5861 5860 5859 5859 5858 5857 5854 5855 5858 5852 5853 5852 5848 5847
5847 5849 5850 5852 5853 5855 5855 5856 5857 5858 5858 5860 5860 5861 5861 5863 5863 5861 5862 5862 5861 5861 5861 5860 5860 5860 5860 5859 5858 5859 5858 5858 5856 5854 5854 5853 5853 5851 5851 5848 5850 5849 5847 5846 5842
5841 5842 5844 5845 5847 5848 5849 5850 5851 5852 5853 5854 5855 5856 5856 5858 5856 5855 5856 5856 5856 5855 5854 5854 5853 5854 5854 5853 5853 5853 5853 5852 5851 5849 5848 5847 5847 5846 5845 5844 5843 5844 5842 5839 5836
5833 5835 5836 5838 5839 5840 5842 5843 5844 5845 5846 5847 5848 5849 5850 5851 5850 5848 5848 5849 5849 5848 5848 5847 5847 5847 5847 5847 5845 5846 5846 5845 5845 5843 5841 5841 5843 5841 5841 5840 5840 5837 5834 5832 5829
5825 5827 5828 5830 5831 5832 5833 5835 5836 5837 5838 5839 5840 5841 5842 5843 5842 5842 5842 5842 5841 5842 5841 5841 5840 5840 5841 5840 5839 5839 5838 5838 5836 5833 5834 5832 5837 5835 5834 5835 5835 5833 5829 5825 5818
5816 5818 5820 5822 5823 5824 5825 5827 5828 5829 5830 5830 5832 5833 5834 5836 5835 5835 5835 5835 5834 5835 5834 5833 5833 5832 5832 5832 5831 5831 5828 5830 5831 5827 5826 5826 5827 5832 5827 5825 5828 5826 5822 5816 5814
5808 5810 5812 5813 5815 5816 5817 5818 5820 5821 5822 5823 5824 5825 5826 5829 5828 5827 5827 5826 5826 5826 5825 5825 5824 5824 5825 5823 5822 5823 5819 5820 5820 5820 5818 5816 5813 5816 5822 5818 5818 5817 5812 5810 5810
5798 5801 5803 5804 5806 5808 5809 5811 5811 5812 5814 5814 5815 5817 5818 5820 5819 5820 5819 5819 5819 5818 5818 5816 5815 5817 5817 5813 5813 5811 5810 5810 5810 5812 5809 5805 5806 5802 5803 5806 5806 5804 5804 5805 5804
5789 5791 5792 5794 5796 5798 5801 5802 5805 5805 5806 5807 5806 5807 5807 5810 5810 5811 5811 5811 5811 5811 5809 5807 5807 5810 5806 5805 5805 5804 5801 5800 5802 5801 5797 5800 5797 5799 5797 5795 5794 5796 5798 5795 5792
5779 5781 5783 5784 5786 5788 5790 5792 5794 5794 5796 5798 5797 5796 5797 5799 5800 5802 5804 5803 5803 5802 5800 5800 5799 5800 5796 5796 5796 5794 5792 5793 5790 5788 5788 5788 5787 5789 5791 5785 5786 5785 5783 5785 5786
5769 5771 5771 5773 5776 5778 5779 5782 5783 5783 5783 5789 5787 5786 5785 5789 5789 5792 5793 5792 5791 5791 5791 5788 5790 5790 5788 5786 5787 5787 5785 5784 5780 5780 5779 5774 5774 5777 5777 5774 5776 5775 5773 5771 5771
5757 5759 5760 5761 5766 5767 5769 5770 5771 5772 5771 5771 5775 5776 5776 5777 5777 5779 5779 5780 5779 5781 5779 5778 5781 5778 5777 5777 5776 5777 5775 5774 5773 5770 5767 5767 5762 5766 5761 5758 5757 5759 5758 5757 5756
5744 5745 5747 5748 5752 5757 5757 5757 5758 5761 5759 5760 5758 5760 5763 5767 5769 5769 5769 5769 5768 5769 5771 5771 5769 5770 5771 5770 5767 5765 5763 5763 5763 5760 5757 5759 5755 5753 5751 5749 5748 5745 5744 5742 5741
5731 5733 5735 5737 5740 5744 5745 5745 5746 5748 5744 5748 5749 5751 5752 5754 5755 5755 5758 5759 5760 5759 5759 5758 5759 5760 5759 5758 5758 5757 5754 5753 5750 5751 5749 5748 5746 5746 5741 5738 5737 5737 5735 5733 5730
5720 5721 5724 5727 5730 5731 5733 5733 5735 5733 5735 5738 5740 5741 5742 5742 5742 5744 5744 5745 5747 5748 5747 5748 5750 5748 5747 5747 5747 5747 5745 5743 5741 5740 5740 5738 5736 5737 5733 5729 5726 5725 5725 5722 5719
5708 5710 5713 5715 5718 5720 5721 5723 5722 5723 5726 5728 5730 5731 5731 5731 5732 5732 5733 5734 5734 5734 5736 5738 5740 5737 5737 5736 5736 5734 5735 5734 5728 5728 5729 5728 5726 5725 5721 5717 5714 5713 5711 5708 5706
5699 5700 5703 5704 5707 5708 5710 5709 5710 5715 5715 5718 5720 5719 5719 5720 5721 5722 5723 5724 5723 5726 5726 5724 5725 5727 5726 5725 5726 5724 5722 5719 5714 5716 5713 5714 5716 5712 5710 5707 5705 5702 5698 5696 5694
5685 5687 5690 5693 5694 5695 5695 5696 5697 5703 5706 5705 5707 5707 5707 5708 5709 5709 5711 5712 5714 5715 5714 5713 5713 5712 5710 5709 5708 5709 5708 5705 5701 5697 5695 5701 5701 5698 5694 5694 5689 5684 5681 5679 5677
5673 5673 5676 5677 5679 5681 5681 5686 5688 5687 5690 5691 5693 5693 5693 5694 5696 5695 5696 5698 5700 5699 5700 5699 5699 5701 5698 5696 5693 5693 5694 5690 5686 5684 5679 5680 5685 5686 5682 5677 5672 5670 5667 5664 5661
5656 5657 5662 5661 5664 5667 5670 5675 5677 5676 5677 5678 5678 5678 5681 5682 5681 5681 5681 5680 5681 5683 5683 5683 5683 5685 5686 5680 5680 5679 5682 5677 5668 5670 5665 5662 5664 5672 5667 5659 5656 5654 5651 5647 5643
5640 5644 5647 5646 5647 5653 5657 5660 5661 5663 5666 5665 5666 5668 5667 5666 5666 5670 5669 5669 5668 5669 5667 5669 5666 5668 5671 5668 5666 5667 5668 5661 5653 5651 5649 5646 5646 5652 5648 5644 5640 5636 5632 5628 5625
5625 5625 5630 5631 5635 5638 5641 5643 5645 5648 5648 5650 5652 5651 5651 5653 5655 5653 5653 5654 5655 5655 5653 5652 5651 5651 5655 5651 5648 5648 5652 5648 5638 5635 5633 5630 5629 5635 5631 5622 5619 5616 5614 5608 5606
5608 5609 5615 5615 5620 5622 5624 5630 5632 5632 5632 5634 5636 5639 5638 5637 5639 5640 5640 5638 5639 5640 5637 5636 5637 5633 5638 5636 5631 5631 5635 5634 5620 5621 5612 5617 5611 5616 5612 5606 5603 5599 5597 5591 5585
5590 5593 5599 5604 5604 5605 5607 5616 5617 5616 5617 5621 5624 5624 5620 5621 5623 5625 5623 5620 5621 5623 5622 5620 5617 5616 5617 5615 5614 5610 5620 5614 5611 5607 5599 5595 5589 5594 5589 5585 5581 5577 5574 5570 5563
5575 5577 5582 5587 5591 5592 5598 5601 5600 5597 5598 5604 5607 5606 5604 5604 5605 5606 5607 5606 5604 5603 5605 5604 5602 5599 5599 5596 5592 5592 5608 5597 5592 5593 5585 5577 5574 5572 5570 5566 5563 5556 5552 5546 5541
Wind_Speed
22 21 20 19 18 17 17 17 17 16 15 15 14 13 13 12 11 12 13 14 14 16 16 17 18 18 20 22 23 22 21 21 22 21 20 19 18 17 19 19 20 18 21 21 17
26 25 24 24 23 22 21 20 20 19 18 18 19 18 17 18 18 18 19 19 20 21 22 23 23 24 25 24 24 23 21 21 22 22 20 23 23 23 21 19 24 23 24 23 21
30 29 29 28 27 26 25 23 22 21 19 19 18 20 21 22 23 23 23 24 26 26 27 27 28 29 28 23 23 21 20 22 23 24 22 23 26 31 29 20 27 26 26 29 28
33 33 32 32 31 30 29 27 25 24 23 23 22 23 23 24 27 28 28 29 30 31 31 32 31 28 24 22 23 21 22 23 26 26 27 28 29 30 27 28 25 26 29 29 32
37 38 37 36 35 34 33 32 31 29 28 28 28 28 28 29 32 35 34 34 35 35 35 31 27 23 24 27 25 22 24 25 28 29 31 32 30 28 29 28 29 27 28 31 34
40 39 39 38 38 37 37 36 35 35 34 33 34 34 34 35 35 36 35 34 34 33 29 27 29 29 29 27 28 27 28 29 28 30 32 33 29 30 31 29 27 28 30 31 34
41 42 42 41 40 38 38 38 38 38 39 39 38 37 35 32 29 29 29 28 28 29 31 33 34 33 31 30 31 33 33 32 33 36 36 37 32 34 33 30 28 29 31 32 38
41 42 42 42 43 43 43 42 41 41 40 39 36 34 33 30 31 32 33 33 34 34 36 37 36 35 34 34 36 36 39 36 35 37 39 40 39 31 33 33 28 29 31 35 36
42 42 43 43 43 43 41 40 39 39 38 38 38 38 36 34 34 35 35 35 34 35 35 36 37 38 37 39 40 39 42 39 38 37 39 42 42 39 28 31 29 29 34 36 36
41 41 41 43 44 44 43 43 42 41 40 40 39 38 36 34 35 36 37 37 37 38 39 41 41 39 38 41 40 40 40 41 43 44 45 47 44 44 43 38 35 37 36 34 33
44 42 44 44 44 44 42 42 41 41 39 39 41 40 40 37 37 36 38 38 38 38 40 41 41 36 38 41 42 42 44 46 46 48 50 44 45 41 42 41 41 41 38 37 39
45 44 46 47 47 46 45 44 43 43 41 38 39 41 40 39 41 39 38 39 39 39 41 43 43 40 44 45 45 47 50 49 49 47 47 45 45 39 37 44 44 43 40 36 35
48 48 49 50 49 48 47 46 45 45 46 40 43 46 48 45 44 40 40 41 42 41 39 42 44 43 44 46 44 42 43 43 46 43 43 48 47 43 40 42 40 42 42 42 40
53 54 56 54 52 49 50 51 49 49 51 53 51 48 48 47 45 39 33 34 36 33 33 37 32 36 37 38 41 39 41 41 42 44 47 46 53 48 51 53 52 49 49 48 46
54 52 52 53 54 51 52 53 54 53 55 54 53 48 42 39 36 35 34 35 36 34 36 38 38 37 36 39 42 42 42 42 41 45 52 47 52 54 54 54 53 54 53 51 49
50 51 50 51 54 52 47 46 44 47 56 51 47 44 43 39 37 38 37 37 39 39 40 42 43 42 43 42 43 46 46 45 47 48 52 51 54 56 55 53 52 52 51 50 49
46 47 49 49 47 45 46 43 41 47 49 49 45 42 40 39 42 44 44 42 41 40 43 44 42 44 45 44 44 44 45 47 51 52 53 54 54 53 52 54 55 55 55 53 51
39 41 41 42 45 48 45 45 48 50 46 45 44 43 44 43 43 44 45 44 44 46 45 43 43 45 46 47 47 48 46 46 50 52 53 51 53 50 52 54 56 54 53 53 54
42 44 46 48 48 49 49 50 53 47 45 44 44 47 46 45 45 43 43 43 45 44 43 43 43 44 45 46 47 50 51 52 53 50 51 52 50 50 51 52 52 53 54 56 59
49 49 51 50 53 51 50 49 52 50 46 45 47 47 47 43 43 42 41 45 44 44 46 48 49 50 50 49 48 47 47 48 49 51 53 52 49 50 51 49 51 54 55 57 59
55 53 53 54 53 54 57 56 55 57 52 51 49 50 47 41 44 48 52 53 53 54 51 51 51 49 48 46 45 45 44 46 48 51 54 56 54 52 50 52 55 55 54 55 57
48 55 60 60 57 55 57 53 48 50 51 51 51 47 45 49 54 55 55 56 58 54 50 49 46 48 44 45 46 47 45 48 53 55 55 57 56 51 51 55 54 53 54 58 60
54 60 66 66 56 56 56 51 50 53 52 57 56 55 53 55 55 52 50 51 54 55 53 48 51 51 51 49 48 48 48 51 55 58 58 58 60 55 55 54 56 58 61 64 65
62 61 69 67 58 60 58 54 52 53 56 56 55 54 55 52 52 55 55 55 55 54 55 53 53 53 51 50 53 54 53 55 58 60 59 60 59 56 57 59 62 63 64 68 69
68 66 64 66 66 55 52 49 55 57 55 61 63 59 52 53 55 58 57 56 54 53 54 55 55 56 56 57 59 59 58 57 61 59 61 63 63 63 62 66 67 68 69 71 74
57 52 56 61 59 56 55 54 59 62 59 56 62 63 63 59 56 53 52 55 54 54 54 55 59 60 60 60 61 65 61 63 63 64 68 68 72 67 70 71 72 74 74 76 79
60 58 61 63 61 62 63 61 62 65 65 65 61 58 57 57 56 53 52 53 56 57 58 60 61 63 64 63 64 68 58 62 65 65 69 73 73 72 72 73 74 77 78 80 81
Wind_Direction
246 247 250 253 258 264 270 276 278 275 269 265 260 255 254 256 260 269 275 279 283 288 291 294 295 299 303 300 296 294 295 290 290 297 299 301 302 297 302 301 302 296 302 312 318
248 251 254 258 262 266 270 274 276 272 268 261 258 257 259 263 268 272 275 280 284 286 289 293 296 299 298 294 291 293 293 289 293 291 294 299 302 300 300 300 293 293 295 295 300
251 253 256 260 264 266 268 272 272 268 263 261 259 260 261 266 270 274 277 281 283 285 289 291 293 295 293 289 285 292 289 286 287 284 285 289 298 303 305 299 285 293 293 295 295
251 254 257 259 262 266 267 269 268 265 263 262 263 265 267 271 274 275 278 280 283 286 287 289 289 289 286 283 284 283 279 290 286 286 287 288 295 295 301 295 295 289 291 289 290
252 254 255 258 260 263 265 266 267 264 263 264 265 266 268 272 274 276 277 279 280 282 284 286 285 287 284 285 284 280 284 289 287 286 283 285 288 292 291 296 299 296 290 288 287
252 254 256 257 258 259 261 262 263 264 264 266 269 269 271 272 274 275 277 278 279 279 280 282 287 286 284 285 282 284 286 287 287 283 283 284 286 288 289 291 292 296 293 287 285
254 256 256 256 257 257 258 259 261 262 266 269 270 272 273 273 272 275 278 280 279 279 280 284 285 284 284 281 283 286 286 289 286 287 288 288 287 289 290 292 287 288 290 291 289
254 255 257 258 257 258 259 260 262 265 267 269 270 271 270 271 274 275 277 277 277 279 281 283 286 285 285 286 286 288 288 284 284 289 290 291 290 288 292 291 287 284 287 287 288
255 256 257 258 258 259 260 262 263 265 266 268 271 273 272 273 272 272 274 275 276 278 279 280 281 284 286 287 287 287 286 289 288 286 294 297 296 292 283 281 283 280 280 287 295
253 256 258 259 261 261 261 262 263 265 266 269 270 273 273 274 274 273 273 275 278 278 280 280 281 283 286 283 284 285 288 287 290 293 295 298 303 302 302 297 295 290 289 293 296
258 256 257 259 260 262 263 263 266 267 265 268 271 270 274 274 274 277 280 280 279 280 280 279 280 281 277 280 282 283 283 285 290 289 288 290 290 292 294 298 292 292 292 293 292
258 260 261 260 261 262 263 264 265 267 267 269 270 273 272 274 275 278 279 279 279 279 280 282 279 279 279 278 280 281 283 287 286 288 289 291 290 291 293 290 294 295 296 293 290
259 262 265 266 264 264 265 266 267 269 272 268 273 273 274 274 278 280 279 280 279 277 279 279 282 280 279 281 282 284 285 287 289 289 290 290 291 294 293 290 291 295 298 299 298
260 264 268 265 263 266 271 271 270 272 273 274 276 273 273 277 280 284 283 284 281 279 273 279 278 276 280 285 288 289 287 288 288 290 292 294 297 301 299 304 306 305 305 305 307
262 262 262 259 260 267 274 270 270 269 271 276 278 281 281 280 282 282 281 281 281 280 281 283 281 280 283 283 284 283 284 283 285 287 290 293 295 299 299 301 305 306 307 308 307
261 261 260 261 264 268 271 268 270 265 267 269 275 280 282 282 280 278 278 279 278 279 280 279 281 285 283 280 278 281 282 284 284 284 285 288 289 291 296 300 299 300 302 303 302
257 259 261 262 262 262 267 266 265 267 270 272 273 276 277 276 278 279 281 280 279 278 277 278 282 281 279 277 277 277 280 282 283 284 287 289 289 291 294 294 295 295 296 295 296
256 259 260 260 258 264 264 262 263 268 270 271 271 272 273 275 276 276 275 277 279 279 281 282 280 278 280 279 279 279 280 283 283 283 283 283 287 289 290 289 290 291 291 290 289
245 252 252 256 257 257 261 263 265 266 266 268 267 268 272 276 275 275 278 278 278 280 283 285 283 286 284 281 281 283 285 282 281 280 279 283 284 284 285 285 287 286 284 284 285
248 247 250 249 249 253 254 253 257 260 258 263 265 266 268 268 269 271 272 272 275 278 281 284 286 287 287 288 285 281 280 278 277 279 280 285 286 287 287 286 283 283 284 286 285
244 241 244 236 242 247 248 250 256 261 263 262 259 260 264 269 271 270 271 276 279 283 287 288 288 287 284 282 274 274 274 274 273 274 278 281 284 288 285 282 281 285 283 280 278
237 241 231 236 237 240 245 253 255 256 257 258 259 259 265 276 277 282 286 287 286 288 287 286 285 285 282 275 271 270 270 269 270 275 275 276 279 286 286 285 285 283 278 276 275
236 241 235 236 245 245 242 254 259 254 258 261 260 261 276 288 289 287 283 283 285 287 287 286 283 284 285 279 271 269 272 274 274 275 276 276 286 289 286 283 281 278 277 278 278
238 244 236 240 255 260 264 273 271 267 271 265 268 276 283 287 280 279 281 283 285 286 287 285 285 285 286 278 274 272 274 274 274 275 278 281 286 284 285 284 282 283 284 283 283
244 250 256 260 265 271 274 269 258 257 266 273 281 289 276 273 274 276 280 281 282 283 283 282 281 278 278 274 272 272 273 274 274 279 280 284 281 284 281 280 281 281 282 283 283
241 255 260 262 270 274 270 268 266 262 266 272 280 277 274 273 274 277 278 280 277 274 271 270 270 270 270 269 269 269 272 274 276 277 281 285 284 285 285 284 284 285 285 286 286
239 265 257 262 267 269 272 266 265 264 267 276 275 271 271 273 273 273 270 266 267 270 272 271 270 269 269 270 270 269 277 274 276 278 281 282 284 285 285 285 286 287 288 288 289